Вернуться в каталог

CZ-2C DEB

АктивенPO
NORAD 40288·DEBRIS·🇨🇳 China

Запущен Oct 27, 2014 с Jiuquan Satellite Launch Center

Loading…

Ближайшие Пролёты (ближайшие 24 часа)

TLE

СвежийSource: Space-Track

Эпоха: Sep 14, 2026, 13:19 UTC

1 40288U 14066C   26257.55488343  .00001213  00000-0  40470-3 0  9996
2 40288  97.9738  10.7081 0155387 294.3152  64.1874 14.32608135617039

Отслеживайте CZ-2C DEB в реальном времени с AllMySat

Download on the App Store